Weather History for KONL - July, 2014

Change the Weather History Date:

Tuesday, July 22, 2014

  Actual Average Record
Temperature  
Mean Temperature 74 °F -  
Max Temperature 83 °F 86 °F 103 °F (1967)
Min Temperature 66 °F 61 °F 47 °F (1990)
Cooling Degree Days 10    
Growing Degree Days 24 (Base 50)    
Moisture  
Dew Point 61 °F    
Average Humidity 59    
Maximum Humidity 80    
Minimum Humidity 42    
Precipitation  
Precipitation 0.00 in - - ()
Sea Level Pressure  
Sea Level Pressure 30.12 in    
Wind  
Wind Speed 10 mph (NNE)    
Max Wind Speed 29 mph    
Max Gust Speed 38 mph    
Visibility 10 miles    
Events Rain , Thunderstorm    
Averages and records for this station are not official NWS values.
T = Trace of Precipitation, MM = Missing Value Source: NWS Daily Summary

Daily Weather History Graph

Daily Weather History Graph

Search for Another Location

Airport or City:

Trip Planner

Search our weather history database for the weather conditions in past years. The results will help you decide how hot, cold, wet, or windy it might be!

Date:

Astronomy

Jul. 22, 2014 Rise Set
Actual Time 6:17 AM CDT 9:04 PM CDT
Civil Twilight 5:44 AM CDT 9:37 PM CDT
Nautical Twilight 5:02 AM CDT 10:18 PM CDT
Astronomical Twilight 4:14 AM CDT 11:06 PM CDT
Moon 2:52 AM CDT (7/22) 5:43 PM CDT (7/22)
Length of Visible Light 15h 53m
Length of Day
14h 47m
Waning Crescent, 16% of the Moon is Illuminated
Jul 22
Waning Crescent
Jul 26
New
Aug 3
First Quarter
Aug 10
Full
Aug 17
Last Quarter

Hourly Weather History & Observations

Time (CDT) Temp. Heat Index Dew Point Humidity Pressure Visibility Wind Dir Wind Speed Gust Speed Precip Events Conditions
12:15 AM 76.5 °F - 67.3 °F 73% 29.90 in 10.0 mi SSW 5.8 mph - N/A   Clear
12:35 AM 77.0 °F - 67.3 °F 72% 29.89 in 10.0 mi SW 8.1 mph - N/A   Clear
12:55 AM 76.1 °F - 66.6 °F 72% 29.89 in 10.0 mi SSW 8.1 mph - N/A   Clear
1:15 AM 80.2 °F 81.8 °F 63.9 °F 57% 29.93 in 10.0 mi West 6.9 mph 17.3 mph N/A   Clear
1:35 AM 78.4 °F - 64.4 °F 62% 29.92 in 10.0 mi SSW 9.2 mph - N/A   Clear
1:55 AM 78.8 °F - 63.7 °F 60% 29.92 in 10.0 mi West 5.8 mph - N/A   Clear
2:15 AM 79.2 °F - 63.1 °F 58% 29.92 in 10.0 mi NW 6.9 mph - N/A   Clear
2:35 AM 78.6 °F - 62.6 °F 58% 29.93 in 10.0 mi North 13.8 mph - N/A   Clear
2:55 AM 78.3 °F - 62.8 °F 59% 29.97 in 10.0 mi NW 27.6 mph 38.0 mph N/A   Clear
3:15 AM 78.8 °F - 61.2 °F 55% 29.97 in 10.0 mi NNW 18.4 mph 24.2 mph N/A   Clear
3:35 AM 78.3 °F - 61.2 °F 56% 29.95 in 10.0 mi NNE 16.1 mph 19.6 mph N/A   Clear
3:55 AM 79.0 °F - 59.9 °F 52% 29.94 in 10.0 mi NE 12.7 mph 18.4 mph N/A   Clear
4:15 AM 77.5 °F - 60.6 °F 56% 30.01 in 10.0 mi NW 20.7 mph - N/A   Clear
4:35 AM 77.0 °F - 57.4 °F 51% 30.02 in 10.0 mi North 28.8 mph 35.7 mph N/A   Clear
4:55 AM 74.7 °F - 57.2 °F 54% 30.04 in 10.0 mi North 24.2 mph 31.1 mph N/A   Clear
5:15 AM 72.7 °F - 57.7 °F 59% 30.07 in 10.0 mi North 11.5 mph 20.7 mph N/A   Clear
6:35 AM 68.2 °F - 58.1 °F 70% 30.04 in 10.0 mi Calm Calm - N/A   Clear
6:55 AM 66.0 °F - 59.5 °F 80% 30.06 in 10.0 mi SW 4.6 mph - N/A   Clear
7:15 AM 68.4 °F - 60.4 °F 76% 30.07 in 10.0 mi West 5.8 mph - N/A   Clear
7:35 AM 69.1 °F - 60.4 °F 74% 30.07 in 10.0 mi Calm Calm - N/A   Clear
7:55 AM 72.9 °F - 59.4 °F 62% 30.07 in 10.0 mi Calm Calm - N/A   Clear
8:15 AM 73.6 °F - 59.9 °F 62% 30.03 in 10.0 mi East 8.1 mph - N/A   Clear
8:35 AM 74.1 °F - 60.3 °F 62% 30.09 in 10.0 mi NW 11.5 mph - N/A   Clear
8:55 AM 71.8 °F - 60.8 °F 68% 30.11 in 10.0 mi North 12.7 mph - N/A   Clear
9:15 AM 73.9 °F - 59.9 °F 61% 30.11 in 10.0 mi North 16.1 mph 23.0 mph N/A   Clear
9:35 AM 72.9 °F - 60.8 °F 66% 30.14 in 10.0 mi NNW 16.1 mph 19.6 mph N/A   Clear
9:55 AM 75.4 °F - 61.2 °F 61% 30.15 in 10.0 mi North 13.8 mph - N/A   Clear
10:15 AM 76.1 °F - 61.0 °F 59% 30.15 in 10.0 mi North 13.8 mph 21.9 mph N/A   Clear
10:35 AM 75.0 °F - 60.8 °F 61% 30.14 in 10.0 mi North 9.2 mph - N/A   Clear
10:55 AM 77.4 °F - 61.0 °F 57% 30.13 in 10.0 mi NNE 6.9 mph - N/A   Clear
11:15 AM 78.4 °F - 61.9 °F 57% 30.14 in 10.0 mi North 8.1 mph - N/A   Clear
11:35 AM 78.8 °F - 61.2 °F 55% 30.13 in 10.0 mi East 5.8 mph - N/A   Clear
11:55 AM 80.6 °F 81.5 °F 60.8 °F 51% 30.14 in 10.0 mi NNE 9.2 mph - N/A   Clear
12:15 PM 81.0 °F 81.7 °F 60.8 °F 50% 30.17 in 10.0 mi North 6.9 mph - N/A   Clear
12:35 PM 82.8 °F 83.1 °F 60.6 °F 47% 30.17 in 10.0 mi NNE 12.7 mph 19.6 mph N/A   Clear
12:55 PM 79.2 °F - 61.2 °F 54% 30.17 in 10.0 mi North 9.2 mph - N/A   Clear
1:15 PM 78.4 °F - 63.0 °F 59% 30.16 in 10.0 mi NNE 8.1 mph - N/A Rain , Thunderstorm Light Thunderstorms and Rain
1:35 PM 81.7 °F 82.6 °F 61.7 °F 51% 30.17 in 10.0 mi NNE 11.5 mph - N/A   Clear
1:55 PM 83.7 °F 84.1 °F 61.7 °F 47% 30.19 in 10.0 mi North 11.5 mph - N/A   Clear
2:15 PM 83.3 °F 83.9 °F 61.5 °F 48% 30.19 in 10.0 mi North 9.2 mph 17.3 mph N/A   Clear
2:35 PM 82.0 °F 83.4 °F 63.7 °F 54% 30.21 in 10.0 mi North 12.7 mph - N/A   Clear
2:55 PM 77.9 °F - 63.7 °F 61% 30.16 in 10.0 mi NE 17.3 mph - N/A   Scattered Clouds
3:15 PM 79.7 °F - 63.7 °F 58% 30.20 in 10.0 mi North 15.0 mph - N/A   Clear
3:35 PM 79.9 °F - 63.3 °F 57% 30.21 in 10.0 mi North 12.7 mph - N/A   Clear
3:55 PM 82.8 °F 83.4 °F 61.9 °F 49% 30.21 in 10.0 mi North 9.2 mph - N/A   Clear
4:15 PM 82.9 °F 82.7 °F 58.3 °F 43% 30.21 in 10.0 mi NNE 12.7 mph 17.3 mph N/A   Clear
4:35 PM 82.9 °F 82.7 °F 58.1 °F 43% 30.21 in 10.0 mi North 9.2 mph 16.1 mph N/A   Clear
4:55 PM 83.3 °F 82.9 °F 57.9 °F 42% 30.19 in 10.0 mi NNE 11.5 mph - N/A   Clear
5:15 PM 83.3 °F 82.9 °F 57.9 °F 42% 30.20 in 10.0 mi North 10.4 mph - N/A   Clear
5:35 PM 83.7 °F 83.6 °F 59.4 °F 44% 30.20 in 10.0 mi North 9.2 mph 16.1 mph N/A   Clear
5:55 PM 83.3 °F 83.4 °F 59.7 °F 45% 30.19 in 10.0 mi NNE 11.5 mph - N/A   Clear
6:15 PM 82.9 °F 83.2 °F 59.9 °F 46% 30.20 in 10.0 mi NNE 9.2 mph - N/A   Clear
6:35 PM 82.8 °F 83.1 °F 60.8 °F 47% 30.19 in 10.0 mi NNE 9.2 mph - N/A   Clear
6:55 PM 82.6 °F 82.8 °F 59.7 °F 46% 30.19 in 10.0 mi NE 10.4 mph - N/A   Clear
7:15 PM 82.4 °F 82.9 °F 60.8 °F 48% 30.19 in 10.0 mi NNE 10.4 mph - N/A   Clear
7:35 PM 81.9 °F 82.3 °F 60.6 °F 48% 30.19 in 10.0 mi NE 6.9 mph - N/A   Clear
7:55 PM 80.6 °F 81.7 °F 62.2 °F 53% 30.19 in 10.0 mi ENE 6.9 mph - N/A   Clear
8:15 PM 79.5 °F - 63.1 °F 57% 30.20 in 10.0 mi ENE 6.9 mph - N/A   Clear
8:35 PM 77.5 °F - 63.1 °F 61% 30.20 in 10.0 mi ENE 5.8 mph - N/A   Clear
8:55 PM 75.0 °F - 63.5 °F 67% 30.21 in 10.0 mi NE 6.9 mph - N/A   Clear
9:15 PM 73.8 °F - 63.5 °F 70% 30.21 in 10.0 mi NE 6.9 mph - N/A   Clear
9:35 PM 73.2 °F - 62.6 °F 69% 30.21 in 10.0 mi East 5.8 mph - N/A   Clear
9:55 PM 71.6 °F - 63.0 °F 74% 30.22 in 10.0 mi ENE 4.6 mph - N/A   Clear
10:15 PM 70.5 °F - 62.8 °F 76% 30.24 in 10.0 mi NE 5.8 mph - N/A   Clear
10:35 PM 70.2 °F - 62.4 °F 76% 30.24 in 10.0 mi NE 5.8 mph - N/A   Clear
10:55 PM 69.4 °F - 61.9 °F 77% 30.24 in 10.0 mi NE 5.8 mph - N/A   Clear
11:15 PM 69.1 °F - 61.7 °F 77% 30.25 in 10.0 mi NE 5.8 mph - N/A   Clear
11:35 PM 68.4 °F - 61.0 °F 77% 30.26 in 10.0 mi NNE 6.9 mph - N/A   Clear
11:55 PM 67.3 °F - 60.8 °F 80% 30.27 in 10.0 mi NNE 4.6 mph - N/A   Clear